Regional Weather Roundup
Issued by NWS Glasgow, MT

Home | Current Version | Previous Version | Text Only | Print | Product List | Glossary On
Versions: 1 2 3 4 5 6 7 8 9 10 11 12 13 14 15 16 17 18 19 20 21 22 23 24 25 26 27 28 29 30 31 32 33 34 35 36 37 38 39 40 41 42 43 44 45 46 47 48 49 50
115
ASUS45 KGGW 200215
RWRGGW
HOURLY REGIONAL WEATHER ROUNDUP FOR NORTHEAST MONTANA
NATIONAL WEATHER SERVICE GLASGOW MONTANA
700 PM MST SUN NOV 19 2017

NOTE: "FAIR" INDICATES FEW OR NO CLOUDS BELOW 12,000 FEET WITH NO
SIGNIFICANT WEATHER AND/OR OBSTRUCTIONS TO VISISBILITY.

NORTHEAST MONTANA


CITY           SKY/WX    TMP DP  RH WIND       PRES   REMARKS
GLASGOW        CLOUDY    38  19  46 S9        29.55F
PLENTYWOOD       N/A     34  22  61 SE7         N/A
WOLF POINT     CLOUDY    29  20  69 SW6       29.57F
JORDAN           N/A     36  20  52 W6        29.59F
WINNETT          N/A     43  15  32 SW6         N/A
SIDNEY         CLOUDY    33  21  61 SW10      29.62F
GLENDIVE       CLOUDY    35  23  61 SW12      29.64F
MALTA            N/A     45  18  34 SW10G20     N/A
SCOBEY           N/A     32  16  52 SE7       29.54F

FORT PECK REPORTS


CITY           SKY/WX    TMP DP  RH WIND       PRES   REMARKS
FORT PECK        N/A     45  34  65 S13         N/A
THE PINES        N/A     41  28  60 S5          N/A

SOUTHEAST MONTANA


CITY           SKY/WX    TMP DP  RH WIND       PRES   REMARKS
BILLINGS       CLOUDY    44  15  31 SW21      29.69F
MILES CITY     CLOUDY    37  24  59 S9        29.66F
BAKER          CLOUDY    40  23  50 SW12      29.67F
LIVINGSTON     CLOUDY    41  16  36 SW38G55   29.74F

CENTRAL MONTANA


CITY           SKY/WX    TMP DP  RH WIND       PRES   REMARKS
HAVRE          CLOUDY    47  17  30 SW36G43   29.50F
LEWISTOWN      CLOUDY    47  13  25 SW23G30   29.67R
GREAT FALLS    CLOUDY    45   8  22 SW26G36   29.62S
CUT BANK       CLOUDY    40  14  34 W22G32    29.54S
HELENA         CLOUDY    33  22  63 S3        29.75F
BUTTE          CLOUDY    33  15  47 VRB6      29.82F
BOZEMAN        CLOUDY    30  18  60 SE8       29.81F

WESTERN MONTANA


CITY           SKY/WX    TMP DP  RH WIND       PRES   REMARKS
MISSOULA       CLOUDY    32  25  75 E3        29.80F
KALISPELL      NOT AVBL

NORTH DAKOTA


CITY           SKY/WX    TMP DP  RH WIND       PRES   REMARKS
WILLISTON      CLOUDY    30  21  69 S5        29.60F
DICKINSON      CLOUDY    30  19  63 S9        29.63F
MINOT          CLOUDY    35  24  64 S9        29.60F
BISMARCK       CLOUDY    32  24  72 CALM      29.72S

SOUTHERN SASKATCHEWAN


CITY           SKY/WX    TMP DP  RH WIND       PRES   REMARKS
REGINA         CLOUDY    25  19  80 S12       29.44F
ESTEVAN        PTCLDY    34  21  60 S14       29.55F
SWIFT CURRENT  PTCLDY    34  23  64 SW13G18   29.36F





USA.gov is the U.S. government's official web portal to all federal, state and local government web resources and services.